Theta_e
326 326 326 325 325 325 325 325 326 326 327 328 328 327 326 326 326 325 323 323 322 321
323 324 324 324 324 325 324 323 323 323 323 325 325 325 325 324 324 323 323 323 322 320
318 320 323 324 323 323 322 320 318 320 320 320 322 322 322 322 321 320 321 319 318 316
300 302 305 308 313 318 319 318 317 316 317 317 317 318 319 319 317 318 313 312 313 310
302 301 301 303 306 308 311 313 315 314 313 313 313 313 314 313 312 314 310 307 306 303
300 301 302 303 303 304 305 306 306 306 308 309 309 309 309 309 308 306 305 303 301 299
300 300 301 300 300 301 301 302 302 303 304 304 305 303 304 302 302 300 299 297 296 296
297 297 297 297 297 297 298 298 298 298 297 298 299 298 298 297 298 296 294 292 292 294
294 294 294 294 294 294 294 294 294 295 295 294 292 290 294 295 294 292 291 291 291 291
292 292 291 291 291 291 292 291 292 292 291 292 292 293 294 292 291 291 291 290 289 289
290 290 289 289 289 290 289 290 290 289 289 289 290 292 293 290 290 290 290 289 289 289
289 289 289 289 289 289 288 288 288 288 289 288 289 291 293 290 288 288 288 288 288 288
288 288 288 288 288 287 287 287 286 287 287 286 288 290 292 291 287 287 286 286 287 285
286 286 286 286 284 283 284 284 284 285 286 286 286 287 291 293 287 287 285 285 285 285
Wind_Speed
11 8 8 9 8 7 7 7 6 8 10 12 11 10 9 8 8 7 8 9 7 5
7 9 8 8 8 7 7 6 5 5 6 7 7 8 9 7 8 7 8 9 8 6
3 3 3 4 7 7 6 5 5 6 7 7 8 8 8 7 6 8 6 4 5 4
2 3 3 3 3 2 3 5 5 5 5 7 6 6 7 7 7 9 6 5 5 5
2 2 3 4 4 3 5 3 4 5 5 5 5 5 6 6 6 8 9 8 7 6
2 1 1 1 1 2 3 3 3 3 4 4 5 5 5 5 6 4 3 5 6 5
3 3 2 1 0 0 0 0 0 1 2 3 3 3 3 4 4 4 4 5 4 5
3 3 3 3 2 1 1 2 2 3 3 3 3 3 5 5 5 6 5 4 5 5
3 3 2 1 1 1 1 1 2 1 1 2 2 5 8 7 6 6 6 7 5 5
2 1 1 0 1 2 2 0 1 2 2 3 3 6 8 9 5 6 7 7 7 5
2 2 2 1 2 2 1 2 2 2 3 4 4 8 8 8 5 4 4 5 6 7
4 4 4 5 5 4 3 2 3 3 4 5 4 8 9 8 3 3 4 3 4 5
2 1 2 4 4 3 4 4 3 5 4 4 5 9 12 10 4 5 4 3 4 7
2 4 4 2 1 1 2 2 3 5 4 5 5 5 11 14 7 6 5 5 5 5
Wind_Direction
209 208 210 208 204 208 208 215 224 225 221 215 216 217 214 220 220 209 211 222 228 238
203 207 209 207 202 207 204 203 209 208 213 234 234 225 211 213 220 213 212 214 208 210
196 194 209 208 207 204 201 194 185 208 211 217 218 214 209 219 221 205 200 172 176 163
194 213 232 247 268 264 200 198 207 223 228 226 220 210 212 218 197 188 166 153 164 170
130 172 198 220 233 234 236 219 215 218 226 224 216 204 204 201 198 190 187 171 165 173
97 110 148 228 239 229 238 240 234 229 230 227 217 201 197 204 197 191 225 155 161 167
151 139 130 126 113 197 83 109 131 225 250 236 226 212 181 177 151 143 150 146 168 174
161 144 148 155 167 150 67 89 120 133 102 110 151 165 157 159 160 155 149 155 168 178
164 165 178 166 123 96 45 351 3 348 154 170 185 186 178 161 171 170 173 171 173 168
202 230 264 12 38 7 337 340 258 247 228 251 248 215 200 183 171 172 181 176 170 170
203 243 270 334 308 268 239 256 256 249 231 240 240 217 206 187 175 179 185 178 177 175
209 216 209 220 229 235 255 266 245 232 228 225 239 218 203 174 164 171 203 196 187 187
184 216 254 246 236 216 214 235 238 265 254 263 254 210 205 184 164 184 192 182 191 196
174 209 219 237 194 215 239 269 264 266 263 252 238 251 229 200 188 198 179 184 186 193